Location: Llansadwrn
(51.9500°N, 3.9000°W)
Time: 20:15:43
(UTC+00:00)

Daily predictions for brighter satellites

Satellite Brightness Start Highest point End
(mag) Time Altitude Azimuth Time Altitude Azimuth Time Altitude Azimuth
CREW DRAGON DEMO-1 DEB 3.3 18:37:48 10° W 18:40:47 55° SSW 18:43:46 10° ESE
CZ-4B R/B 3.7 18:38:29 10° N 18:41:35 31° WNW 18:44:41 10° SW
Cosmos 1536 Rocket 4.0 18:38:24 10° N 18:42:39 42° ENE 18:46:54 10° SE
Cosmos 1125 Rocket 4.3 18:43:00 10° SSE 18:47:32 29° E 18:52:05 10° NE
SJ-6B 4.1 18:49:02 10° ESE 18:51:53 21° ENE 18:54:46 10° NNE
USA 238 DEB 4.1 18:45:18 10° NW 18:52:28 78° SW 18:59:55 10° SE
USA 238 4.1 18:45:24 10° NW 18:52:34 78° SW 19:00:03 10° SE
CZ-2D R/B 4.1 18:50:09 10° S 18:53:58 55° W 18:57:49 10° NNW
CZ-4 R/B 1.9 18:49:51 10° S 18:54:02 68° WSW 18:58:12 10° NNW
Cosmos 2150 Rocket 4.3 18:49:10 10° S 18:54:19 47° ESE 18:59:33 10° NE
Cosmos 1674 3.4 18:51:29 10° N 18:55:03 35° ENE 18:58:36 10° SE
SJ-11-01 4.3 18:50:28 10° SSE 18:55:07 67° ENE 18:59:48 10° N
GP-B 4.4 18:51:40 10° N 18:55:55 46° W 19:00:09 10° SSW
Cosmos 1464 Rocket 4.0 18:50:10 10° S 18:56:10 59° E 19:02:16 10° NNE
CZ-2C R/B 3.2 18:50:48 10° SSE 18:56:14 83° ENE 19:01:58 10° NNW
Cosmos 1782 Rocket 4.2 18:52:34 10° SSW 18:56:58 64° WNW 19:01:26 10° N
Okean-O 3.4 18:53:34 10° S 18:57:56 56° W 19:02:20 10° NNW
MOS 1 Rocket 3.5 18:58:02 10° NNE 19:02:10 38° E 19:06:10 10° SSE
FREGAT/IRIS 4.0 19:04:41 15° E 19:05:29 17° ENE 19:07:19 10° NNE
In-Cosmos 22 4.2 19:03:56 10° NNW 19:09:16 86° WSW 19:14:40 10° S
Cosmos 1048 Rocket 4.3 19:05:00 10° NNW 19:10:20 77° WSW 19:15:41 10° SSE
ARGOS 3.1 19:06:30 10° SSE 19:11:50 70° ENE 19:17:12 10° NNW
CZ-2C R/B 3.5 19:07:25 10° NNE 19:12:15 29° E 19:17:05 10° SSE
Cosmos 1340 Rocket 4.4 19:15:11 16° E 19:15:32 16° E 19:18:02 10° NE
Lacrosse 5 rocket 2.4 19:12:48 10° WNW 19:16:57 43° N 19:20:43 13° ENE
DMSP B5D1-3 4.4 19:11:56 10° NNE 19:17:03 75° ESE 19:22:09 10° S
Cosmos 1733 4.4 19:14:06 10° SE 19:17:09 23° E 19:20:11 10° NE
Cosmos 2082 Rocket 3.4 19:12:57 10° NNW 19:17:43 27° NE 19:21:17 15° E
Cosmos 2151 Rocket 3.6 19:13:22 10° S 19:17:48 65° E 19:22:17 10° NNE
HJ-1C 3.6 19:15:22 10° S 19:18:39 72° WSW 19:21:59 10° NNW
NOSS 2-2 (C) 3.6 19:15:43 10° SW 19:19:16 66° NW 19:23:28 10° NE
BREEZE-M DEB (TANK) 3.9 19:18:25 10° W 19:21:10 32° SSW 19:27:36 10° SE
Cosmos 1891 Rocket 4.5 19:16:16 10° S 19:22:22 89° W 19:28:27 10° N
Cosmos 494 Rocket 4.0 19:17:50 10° NNW 19:23:08 88° WSW 19:28:25 10° SSE
COSMO-SKYMED 1 4.3 19:21:19 10° N 19:25:20 37° WNW 19:29:20 10° SW
Meteor 1-15 Rocket 4.3 19:23:00 10° S 19:28:32 58° E 19:34:12 10° NNE
Cosmos 1805 3.6 19:25:16 10° SSE 19:28:56 40° E 19:32:38 10° NNE
OBJECT-B 2.0 19:28:48 23° E 19:29:28 25° ENE 19:32:14 10° N
Ariane Rocket 3.0 19:28:40 10° SSE 19:33:41 66° ENE 19:38:45 10° N
SL-08 RB Rocket 3.6 19:29:08 10° SSE 19:33:41 76° ENE 19:38:14 10° NNW
SJ 16-02 4.3 19:32:24 10° WNW 19:34:52 15° NW 19:37:21 10° N
Cosmos 1269 Rocket 4.0 19:29:44 10° NNW 19:35:04 71° ENE 19:39:33 15° SE
H-2A R/B 2.5 19:30:11 10° S 19:35:09 63° WSW 19:40:18 10° NNW
USA 116 4.1 19:31:46 10° N 19:35:20 64° WNW 19:39:19 10° SSW
Nadezhda 4 Rocket 4.1 19:30:21 10° NNW 19:36:30 81° W 19:42:37 10° S
KORONAS-FOTON 3.8 19:32:44 10° N 19:36:42 89° WSW 19:40:37 10° S
Cosmos 1626 2.4 19:36:50 10° N 19:40:25 45° ENE 19:42:02 27° SE
Cosmos 2263 Rocket 4.0 19:38:06 10° WSW 19:43:04 32° NW 19:48:06 10° NNE
COSMOS 2406 3.2 19:38:31 10° NNW 19:44:12 66° NE 19:47:56 22° SE
USA 186 1.7 19:42:34 16° SSE 19:45:07 88° W 19:48:27 10° NNW
MetOp-A 4.1 19:40:20 12° SSE 19:45:14 67° ENE 19:50:34 10° N
ISS -3.8 19:43:12 10° W 19:46:35 83° S 19:47:46 38° E
Cosmos 1844 Rocket 2.7 19:41:24 10° SSW 19:46:59 89° WNW 19:52:38 10° NNE
ATLAS CENTAUR R/B 3.8 19:46:55 10° NNW 19:48:22 12° N 19:49:49 10° NNE
Cosmos 2278 Rocket 3.1 19:51:32 26° ESE 19:51:32 26° ESE 19:56:03 10° NE
Lacrosse 4 Rocket 2.1 19:47:55 10° NNW 19:51:43 36° NE 19:52:52 30° E
IRS-1A Rocket 4.4 19:48:39 10° SSE 19:54:33 88° WSW 20:00:25 10° NNW
Cosmos 1844 3.6 19:48:58 10° SSW 19:54:40 86° ESE 20:00:19 10° NNE
Meteor 2-5 Rocket 3.7 19:49:04 10° NNW 19:54:46 88° E 20:00:34 10° SSE
Meteor 1-22 Rocket 4.5 19:50:45 10° SSE 19:56:28 52° E 20:02:21 10° NNE
Cosmos 909 Rocket 4.4 19:50:03 10° NW 19:56:39 52° NE 19:59:54 27° E
Meteor 1-24 Rocket 3.6 19:51:31 10° N 19:57:06 74° ENE 20:01:37 17° SSE
Cosmos 2034 Rocket 4.2 19:50:58 10° SSW 19:57:20 75° WNW 20:03:41 10° N
Exosat Rocket 3.4 19:53:52 10° SSW 19:59:06 76° ESE 20:04:10 10° NNE
SL-14 R/B 3.2 19:56:27 10° N 20:00:24 68° ENE 20:01:54 36° SSE
Okean 1 Rocket 3.0 19:57:01 10° S 20:01:30 83° E 20:06:02 10° NNE
NOSS 3-4 (A) 3.5 19:56:14 10° SSW 20:01:57 51° SE 20:08:05 10° NE
NOSS 3-4 (C) 3.5 19:56:21 10° SSW 20:02:03 51° SE 20:08:11 10° NE
Resurs 01 Rocket 2.1 20:03:26 37° E 20:04:24 42° ENE 20:08:37 10° N
Cosmos 1833 Rocket 2.6 20:03:37 10° NNW 20:09:19 74° ENE 20:11:54 33° SE
Cosmos 1470 4.5 20:12:29 20° NE 20:12:29 20° NE 20:14:01 10° NNE
Cosmos 1766 3.2 20:06:45 10° S 20:10:40 89° WNW 20:14:40 10° N
Cosmos 2251 Rocket 3.9 20:07:01 10° NNW 20:12:14 48° ENE 20:13:44 38° E
Abrixas rocket 4.3 20:12:02 10° WSW 20:13:27 14° SW 20:13:27 14° SW
CENTAUR R/B 3.9 20:06:07 10° NW 20:13:45 48° WSW 20:22:00 10° SSE
ERS-1 Rocket 4.4 20:17:40 22° ENE 20:17:49 22° ENE 20:21:36 10° N
ARIANE 5 R/B 3.3 20:20:05 36° ENE 20:20:05 36° ENE 20:23:57 10° N
SPOT 3 Rocket 3.4 20:20:51 36° SSE 20:23:02 81° ENE 20:28:14 10° NNW
ATLAS 2AS CENTAUR R/B 2.9 20:16:49 10° SSW 20:24:41 67° SE 20:32:28 10° NE
Cosmos 1634 Rocket 3.9 20:18:43 10° S 20:24:54 86° E 20:31:10 10° N
SJ-6B 3.8 20:24:09 21° SSW 20:26:17 43° W 20:29:57 10° NNW
ATLAS 3B R/B 2.7 20:19:41 10° NW 20:26:32 82° SW 20:29:50 35° SE
Cosmos 1892 Rocket 3.4 20:23:08 10° N 20:27:30 88° W 20:28:36 50° S
Resurs 1-3 3.6 20:26:17 43° S 20:27:42 84° WSW 20:32:08 10° NNW
Landsat 7 4.3 20:27:58 40° ENE 20:28:02 40° ENE 20:32:30 10° N
Cosmos 1125 Rocket 4.3 20:24:11 10° SW 20:29:22 52° WNW 20:34:36 10° NNE
SPOT 5 4.3 20:33:48 27° ENE 20:33:49 27° ENE 20:38:15 10° N
Cosmos 1655 Rocket 4.0 20:29:45 10° N 20:36:01 64° ENE 20:37:50 45° SE
Cosmos 1461 3.9 20:34:34 10° NW 20:39:06 40° NE 20:39:30 39° NE
CRYOSAT 2 4.2 20:46:08 10° N 20:51:04 82° E 20:51:19 78° SE
Cosmos 1340 Rocket 3.4 20:50:42 46° WSW 20:51:32 57° WNW 20:55:31 10° N
CZ-2C R/B 3.4 20:47:24 10° N 20:52:50 55° WNW 20:58:17 10° SW
Lacrosse 5 rocket 1.7 20:52:10 10° WNW 20:56:20 69° N 20:56:20 69° N
Cosmos 2180 Rocket 4.4 20:57:17 47° S 20:59:16 79° E 21:05:39 10° NNE
MetOp-B 4.0 20:58:51 71° SSE 20:59:28 89° ENE 21:04:52 10° NNW
Cosmos 2098 Rocket 3.8 20:53:34 10° N 21:00:30 89° E 21:01:45 59° S
Cosmos 2279 Rocket 4.0 20:57:29 25° SSW 21:01:23 83° W 21:07:42 10° N
OBJECT-B 2.9 21:02:00 25° W 21:02:00 25° W 21:04:33 10° NW
Cosmos 2082 Rocket 2.1 20:56:48 10° NNW 21:02:27 80° WSW 21:03:08 68° S
Spot 2 Rocket 3.5 21:05:26 71° NE 21:05:26 71° NE 21:10:12 10° NNW
Cosmos 1602 Rocket 4.4 21:02:38 10° N 21:05:44 43° NNE 21:05:44 43° NNE
Cosmos 1809 Rocket 4.3 21:07:48 10° N 21:14:02 71° ENE 21:14:13 71° E
Cosmos 1626 Rocket 4.3 21:14:11 10° NNW 21:17:39 52° NNW 21:17:39 52° NNW
Terra 3.1 21:21:44 31° NNE 21:21:44 31° NNE 21:24:39 10° N
Cosmos 1140 Rocket 4.2 21:17:18 10° NNW 21:21:18 43° NNE 21:21:18 43° NNE
ISS -0.8 21:20:01 10° W 21:20:44 15° W 21:20:44 15° W
Cosmos 1455 Rocket 4.0 21:24:24 46° NW 21:24:24 46° NW 21:28:08 10° N
Cosmos 407 Rocket 4.0 21:22:20 10° NNW 21:26:26 52° N 21:26:26 52° N
ATLAS CENTAUR R/B 3.7 21:25:59 10° NNW 21:27:26 16° N 21:27:26 16° N
SPOT 1/Viking Rocket 3.7 21:29:23 69° NW 21:29:23 69° NW 21:33:57 10° NNW
Lacrosse 4 Rocket 3.1 21:26:39 10° NW 21:29:10 28° W 21:29:10 28° W
Meteor 2-14 Rocket 4.4 21:28:44 10° N 21:34:33 77° NNE 21:34:33 77° NNE
Cosmos 2278 Rocket 2.4 21:33:01 39° SW 21:35:06 66° NW 21:40:46 10° NNE
Resurs 01 Rocket 3.4 21:41:01 27° W 21:41:03 27° W 21:44:51 10° NW
Cosmos 2266 Rocket 4.2 21:38:48 10° NNW 21:44:42 58° W 21:45:08 57° WSW
Cosmos 1833 Rocket 4.4 21:48:22 10° NW 21:52:41 23° WSW 21:53:37 22° WSW
NOSS 3-4 (A) 4.2 21:47:00 10° WSW 21:52:54 51° NNW 21:59:20 10° NE
NOSS 3-4 (C) 4.2 21:47:07 10° WSW 21:52:59 51° NNW 21:59:26 10° NE
ERS-1 Rocket 3.9 21:57:40 45° NNW 21:57:40 45° NNW 22:01:12 10° NNW
SPOT 5 4.1 22:13:02 43° NW 22:13:02 43° NW 22:16:49 10° NNW
ATLAS 2AS CENTAUR R/B 3.7 22:08:21 10° WSW 22:16:06 52° NNW 22:23:39 10° NE
ATLAS 3B R/B 4.3 22:11:16 10° WNW 22:16:25 23° WSW 22:17:06 22° WSW
Lacrosse 5 rocket 4.4 22:31:32 10° WNW 22:31:57 12° WNW 22:31:57 12° WNW
NOSS 3-1 (C) 4.1 22:30:45 10° NW 22:37:24 65° NNE 22:37:24 65° NNE
CZ-4C R/B 4.2 22:45:17 22° NE 22:45:17 22° NE 22:47:32 10° NE
Cosmos 2082 Rocket 4.5 22:42:29 10° WNW 22:44:59 15° W 22:44:59 15° W
COSMOS 2455 4.1 22:57:42 36° N 22:57:42 36° N 23:01:37 10° NNE
Cosmos 2297 Rocket 4.2 22:52:29 10° NNW 22:56:27 21° NNE 22:56:27 21° NNE
Terra 4.2 23:00:38 19° NW 23:00:38 19° NW 23:02:19 10° NNW
Cosmos 2369 Rocket 4.4 23:10:31 18° NE 23:10:31 18° NE 23:11:56 10° NNE
Cosmos 2278 Rocket 4.5 23:16:10 10° W 23:20:18 20° NNW 23:24:27 10° NNE
SL-16 R/B 4.5 23:50:36 20° NE 23:51:02 20° NE 23:55:17 10° N
